Location: �couen
(49.0206°N, 2.3831°E)
Time: 03:07:44
(UTC+00:00)

Cosmos 2098 - Pass Details

Date: 27 May 2022
Orbit: 387 x 1576 km, 82.9° (Epoch: 04 July)

Event Time Altitude Azimuth Distance (km) Brightness Sun altitude
Rises 02:28:56 0° 2° (N) 2,461 9.1 -11.1°
Reaches altitude 10° 02:31:25 10° 19° (NNE) 1,494 8.3 -10.8°
Maximum altitude 02:33:52 21° 71° (ENE) 964 6.9 -10.6°
Drops below altitude 10° 02:36:12 10° 123° (ESE) 1,420 7.0 -10.3°
Sets 02:38:30 0° 141° (SE) 2,295 7.9 -10.1°
